Location: Hamayl? Da??
(36.7028°N, 30.1716°E)
Time: 07:04:58
(UTC+00:00)

Cosmos 2344 - Pass Details

Date: 04 August 2024
Orbit: 1207 x 3035 km, 63.3° (Epoch: 10 September)

Event Time Altitude Azimuth Distance (km) Brightness Sun altitude
Exits shadow 21:17:14 31° 260° (W) 2,052 4.6 -35.2°
Maximum altitude 21:20:16 45° 309° (NW) 1,615 4.3 -35.3°
Drops below altitude 10° 21:27:12 10° 22° (NNE) 3,181 6.2 -35.6°
Sets 21:30:08 0° 29° (NNE) 4,217 6.9 -35.7°
